Northfield, Minnesota, United States (55057)
Lat: 44.46N, Lon: 93.16W
Wx Zone: MNZ077
Local Info
Past Weather Observations for Today

NOTE: This archive is for the closest National Weather Service station to Northfield. Information may differ from the station used for current weather conditions.

Click here for Long-term Archive

Time Weather Temperature Dewpoint Humidity Pressure Winds Precip Visibility
12:30
Clear
75°F / 24°C 55°F / 13°C 50% 29.92 in
(1013 mb)
W 6.9 mph
(W 11 kph)
- 10SM
12:11
Clear
75°F / 24°C 54°F / 12°C 47% 29.92 in
(1013 mb)
WNW 10.4 mph
(WNW 17 kph)
- 10SM
11:51
Clear
75°F / 24°C 55°F / 13°C 50% 29.92 in
(1013 mb)
SSW 6.9 mph
(SSW 11 kph)
- 10SM
11:30
Clear
75°F / 24°C 57°F / 14°C 54% 29.92 in
(1013 mb)
W 8.1 mph
(W 13 kph)
- 10SM
11:11
Clear
73°F / 23°C 57°F / 14°C 57% 29.92 in
(1013 mb)
W 8.1 mph
(W 13 kph)
- 10SM
10:50
Clear
73°F / 23°C 57°F / 14°C 57% 29.92 in
(1013 mb)
WNW 5.8 mph
(WNW 9 kph)
- 10SM
10:31
Clear
73°F / 23°C 57°F / 14°C 57% 29.92 in
(1013 mb)
W 5.8 mph
(W 9 kph)
- 10SM
10:11
Clear
72°F / 22°C 57°F / 14°C 61% 29.92 in
(1013 mb)
W 6.9 mph
(W 11 kph)
- 10SM
09:50
Clear
72°F / 22°C 59°F / 15°C 65% 29.92 in
(1013 mb)
WNW 6.9 mph
(WNW 11 kph)
- 10SM
09:31
Clear
70°F / 21°C 57°F / 14°C 64% 29.92 in
(1013 mb)
W 5.8 mph
(W 9 kph)
- 10SM
09:11
Clear
70°F / 21°C 57°F / 14°C 64% 29.92 in
(1013 mb)
W 6.9 mph
(W 11 kph)
- 10SM
08:50
Clear
68°F / 20°C 59°F / 15°C 73% 29.89 in
(1012 mb)
SSW 6.9 mph
(SSW 11 kph)
- 10SM
08:31
Clear
68°F / 20°C 57°F / 14°C 69% 29.89 in
(1012 mb)
NW 8.1 mph
(NW 13 kph)
- 10SM
08:11
Clear
66°F / 19°C 59°F / 15°C 78% 29.89 in
(1012 mb)
W 5.8 mph
(W 9 kph)
- 10SM
07:51
Clear
66°F / 19°C 57°F / 14°C 73% 29.89 in
(1012 mb)
W 4.6 mph
(W 7 kph)
- 10SM
07:30
Clear
64°F / 18°C 57°F / 14°C 78% 29.89 in
(1012 mb)
W 6.9 mph
(W 11 kph)
- 10SM
07:11
Clear
63°F / 17°C 57°F / 14°C 83% 29.89 in
(1012 mb)
W 5.8 mph
(W 9 kph)
- 10SM
06:50
Partly Cloudy
63°F / 17°C 57°F / 14°C 83% 29.89 in
(1012 mb)
W 4.6 mph
(W 7 kph)
- 10SM
06:31
Clear
61°F / 16°C 57°F / 14°C 88% 29.86 in
(1011 mb)
Calm - 10SM
06:11
Clear
59°F / 15°C 57°F / 14°C 94% 29.86 in
(1011 mb)
SW 4.6 mph
(SW 7 kph)
- 10SM
05:50
Partly Cloudy
63°F / 17°C 57°F / 14°C 83% 29.86 in
(1011 mb)
SW 3.5 mph
(SW 6 kph)
- 10SM
05:31
Overcast
Rain
63°F / 17°C 57°F / 14°C 83% 29.89 in
(1012 mb)
SSW 4.6 mph
(SSW 7 kph)
- 10SM
05:11
Overcast
Drizzle
63°F / 17°C 59°F / 15°C 88% 29.86 in
(1011 mb)
SW 6.9 mph
(SW 11 kph)
- 10SM
04:51
Overcast
63°F / 17°C 57°F / 14°C 83% 29.86 in
(1011 mb)
SSE 5.8 mph
(SSE 9 kph)
- 10SM
04:31
Overcast
63°F / 17°C 59°F / 15°C 88% 29.86 in
(1011 mb)
SSE 4.6 mph
(SSE 7 kph)
- 10SM
04:10
Overcast
63°F / 17°C 59°F / 15°C 88% 29.83 in
(1010 mb)
SW 5.8 mph
(SW 9 kph)
- 10SM
03:51
Overcast
Drizzle
63°F / 17°C 59°F / 15°C 88% 29.83 in
(1010 mb)
S 4.6 mph
(S 7 kph)
- 10SM
03:31
Overcast
Light Rain
61°F / 16°C 59°F / 15°C 94% 29.86 in
(1011 mb)
SSE 3.5 mph
(SSE 6 kph)
- 10SM
03:09
Overcast
61°F / 16°C 57°F / 14°C 88% 29.83 in
(1010 mb)
SW 5.8 mph
(SW 9 kph)
- 10SM
02:51
Mostly Cloudy
61°F / 16°C 57°F / 14°C 88% 29.83 in
(1010 mb)
SW 4.6 mph
(SW 7 kph)
- 10SM
02:31
Partly Cloudy
61°F / 16°C 57°F / 14°C 88% 29.83 in
(1010 mb)
SSE 3.5 mph
(SSE 6 kph)
- 10SM
02:10
Partly Cloudy
61°F / 16°C 57°F / 14°C 88% 29.83 in
(1010 mb)
SSE 4.6 mph
(SSE 7 kph)
- 10SM
01:51
Clear
61°F / 16°C 57°F / 14°C 88% 29.83 in
(1010 mb)
SSE 5.8 mph
(SSE 9 kph)
- 10SM
01:30
Clear
61°F / 16°C 57°F / 14°C 88% 29.83 in
(1010 mb)
S 3.5 mph
(S 6 kph)
- 10SM
01:11
Clear
Fog And Mist
61°F / 16°C 57°F / 14°C 88% 29.83 in
(1010 mb)
Calm - 5SM
00:51
Clear
61°F / 16°C 57°F / 14°C 88% 29.83 in
(1010 mb)
SSE 3.5 mph
(SSE 6 kph)
- 10SM
00:30
Clear
61°F / 16°C 57°F / 14°C 88% 29.83 in
(1010 mb)
SW 4.6 mph
(SW 7 kph)
- 10SM
00:11
Clear
61°F / 16°C 57°F / 14°C 88% 29.83 in
(1010 mb)
S 3.5 mph
(S 6 kph)
- 10SM
Time Weather Temperature Dewpoint Humidity Pressure Winds Precip Visibility


Weather for websites

WeatherForYou.com, LLC is not responsible for any damages or problems caused by this service. Current weather conditions are obtained from the closest station including government and personal stations which may have varying degrees of accuracy. Weather forecasts are derived from the NOAA NDFD. Like all things, this site belongs to Jesus Christ... He just trusts me to maintain it. If you have any questions or comments email webmaster@weatherforyou.com

Copyright © 2014, WeatherForYou.com LLC. All rights reserved.